timestamp,wind_dir_avg,wind_spd_max_dir,wind_spd_avg,wind_spd_gust,battery_voltage,lat,long
2018-04-06 00:00:00+00:00,253.0,252.0,7.8,8.88,,47.59359,-54.27349
2018-04-06 00:10:00+00:00,249.0,247.0,7.43,8.14,,47.59359,-54.27349
2018-04-06 00:20:00+00:00,247.0,251.0,8.09,9.16,,47.59359,-54.27349
2018-04-06 00:30:00+00:00,238.0,237.0,8.11,10.21,,47.59359,-54.27349
2018-04-06 00:40:00+00:00,244.0,238.0,9.91,12.11,,47.59359,-54.27349
2018-04-06 00:50:00+00:00,247.0,249.0,9.69,11.37,,47.59359,-54.27349
2018-04-06 01:00:00+00:00,249.0,248.0,7.75,8.82,,47.59359,-54.27349
2018-04-06 01:10:00+00:00,244.0,245.0,8.77,9.89,,47.59359,-54.27349
2018-04-06 01:20:00+00:00,244.0,248.0,9.44,11.22,,47.59359,-54.27349
2018-04-06 01:30:00+00:00,246.0,239.0,9.14,10.89,,47.59359,-54.27349
2018-04-06 01:40:00+00:00,244.0,242.0,8.18,9.77,,47.59359,-54.27349
2018-04-06 01:50:00+00:00,245.0,248.0,8.68,10.39,,47.59359,-54.27349
2018-04-06 02:00:00+00:00,244.0,248.0,9.38,10.95,,47.59359,-54.27349
2018-04-06 02:10:00+00:00,244.0,244.0,9.35,11.22,,47.59359,-54.27349
2018-04-06 02:20:00+00:00,247.0,246.0,9.57,11.28,,47.59359,-54.27349
2018-04-06 02:30:00+00:00,244.0,240.0,8.56,9.84,,47.59359,-54.27349
2018-04-06 02:40:00+00:00,248.0,250.0,8.97,10.52,,47.59359,-54.27349
2018-04-06 02:50:00+00:00,249.0,249.0,8.34,9.33,,47.59359,-54.27349
2018-04-06 03:00:00+00:00,248.0,247.0,8.41,9.38,,47.59359,-54.27349
2018-04-06 03:10:00+00:00,252.0,264.0,8.15,9.29,,47.59359,-54.27349
2018-04-06 03:20:00+00:00,248.0,246.0,7.81,9.12,,47.59359,-54.27349
2018-04-06 03:30:00+00:00,247.0,252.0,8.46,9.74,,47.59359,-54.27349
2018-04-06 03:40:00+00:00,243.0,249.0,7.98,9.38,,47.59359,-54.27349
2018-04-06 03:50:00+00:00,245.0,244.0,8.0,9.46,,47.59359,-54.27349
2018-04-06 04:00:00+00:00,247.0,254.0,9.11,11.44,,47.59359,-54.27349
2018-04-06 04:10:00+00:00,244.0,244.0,8.39,10.16,,47.59359,-54.27349
2018-04-06 04:20:00+00:00,250.0,252.0,8.75,10.1,,47.59359,-54.27349
2018-04-06 04:30:00+00:00,262.0,265.0,9.5,10.44,,47.59359,-54.27349
2018-04-06 04:40:00+00:00,278.0,277.0,7.3,7.9,,47.59359,-54.27349
2018-04-06 04:50:00+00:00,292.0,288.0,7.71,8.51,,47.59359,-54.27349
2018-04-06 05:00:00+00:00,287.0,284.0,8.52,9.81,,47.59359,-54.27349
2018-04-06 05:10:00+00:00,281.0,288.0,7.0,8.31,,47.59359,-54.27349
2018-04-06 05:20:00+00:00,274.0,274.0,8.71,9.35,,47.59359,-54.27349
2018-04-06 05:30:00+00:00,282.0,279.0,8.06,9.13,,47.59359,-54.27349
2018-04-06 05:40:00+00:00,289.0,296.0,9.48,11.44,,47.59359,-54.27349
2018-04-06 05:50:00+00:00,287.0,292.0,9.49,10.98,,47.59359,-54.27349
2018-04-06 06:00:00+00:00,285.0,289.0,8.57,10.63,,47.59359,-54.27349
2018-04-06 06:10:00+00:00,275.0,278.0,10.18,11.08,,47.59359,-54.27349
2018-04-06 06:20:00+00:00,273.0,272.0,9.38,10.95,,47.59359,-54.27349
2018-04-06 06:30:00+00:00,283.0,291.0,10.38,11.71,,47.59359,-54.27349
2018-04-06 06:40:00+00:00,274.0,271.0,9.41,10.43,,47.59359,-54.27349
2018-04-06 06:50:00+00:00,281.0,280.0,9.96,10.9,,47.59359,-54.27349
2018-04-06 07:00:00+00:00,282.0,291.0,8.76,9.82,,47.59359,-54.27349
2018-04-06 07:10:00+00:00,286.0,281.0,9.86,10.95,,47.59359,-54.27349
2018-04-06 07:20:00+00:00,283.0,283.0,8.47,9.54,,47.59359,-54.27349
2018-04-06 07:30:00+00:00,292.0,293.0,8.8,10.53,,47.59359,-54.27349
2018-04-06 07:40:00+00:00,291.0,299.0,8.31,9.76,,47.59359,-54.27349
2018-04-06 07:50:00+00:00,289.0,286.0,9.08,11.4,,47.59359,-54.27349
2018-04-06 08:00:00+00:00,278.0,285.0,9.43,10.73,,47.59359,-54.27349
2018-04-06 08:10:00+00:00,290.0,294.0,10.64,12.05,,47.59359,-54.27349
2018-04-06 08:20:00+00:00,266.0,268.0,9.2,10.72,,47.59359,-54.27349
2018-04-06 08:30:00+00:00,283.0,286.0,9.98,13.27,,47.59359,-54.27349
2018-04-06 08:40:00+00:00,267.0,266.0,12.02,13.59,,47.59359,-54.27349
2018-04-06 08:50:00+00:00,275.0,272.0,9.72,11.14,,47.59359,-54.27349
2018-04-06 09:00:00+00:00,271.0,273.0,9.52,11.08,,47.59359,-54.27349
2018-04-06 09:10:00+00:00,258.0,261.0,10.26,12.88,,47.59359,-54.27349
2018-04-06 09:20:00+00:00,275.0,272.0,12.03,14.33,,47.59359,-54.27349
2018-04-06 09:30:00+00:00,265.0,266.0,9.9,11.94,,47.59359,-54.27349
2018-04-06 09:40:00+00:00,265.0,267.0,9.78,10.71,,47.59359,-54.27349
2018-04-06 09:50:00+00:00,272.0,271.0,11.56,13.48,,47.59359,-54.27349
2018-04-06 10:00:00+00:00,269.0,269.0,9.75,10.97,,47.59359,-54.27349
2018-04-06 10:10:00+00:00,274.0,274.0,11.87,13.26,,47.59359,-54.27349
2018-04-06 10:20:00+00:00,276.0,283.0,12.51,14.63,,47.59359,-54.27349
2018-04-06 10:30:00+00:00,266.0,268.0,13.93,16.04,,47.59359,-54.27349
2018-04-06 10:40:00+00:00,275.0,273.0,12.28,14.61,,47.59359,-54.27349
2018-04-06 10:50:00+00:00,270.0,274.0,12.96,14.51,,47.59359,-54.27349
2018-04-06 11:00:00+00:00,280.0,282.0,14.31,17.3,,47.59359,-54.27349
2018-04-06 11:10:00+00:00,267.0,269.0,15.53,17.35,,47.59359,-54.27349
2018-04-06 11:20:00+00:00,274.0,270.0,15.04,17.15,,47.59359,-54.27349
2018-04-06 11:30:00+00:00,272.0,274.0,17.31,19.74,,47.59359,-54.27349
2018-04-06 11:40:00+00:00,256.0,255.0,16.52,19.22,,47.59359,-54.27349
2018-04-06 11:50:00+00:00,261.0,259.0,16.21,19.29,,47.59359,-54.27349
2018-04-06 12:00:00+00:00,263.0,264.0,12.42,16.92,,47.59359,-54.27349
2018-04-06 12:10:00+00:00,256.0,258.0,13.77,16.51,,47.59359,-54.27349
2018-04-06 12:20:00+00:00,260.0,259.0,14.97,17.73,,47.59359,-54.27349
2018-04-06 12:30:00+00:00,271.0,273.0,14.06,15.3,,47.59359,-54.27349
2018-04-06 12:40:00+00:00,258.0,261.0,15.45,17.19,,47.59359,-54.27349
2018-04-06 12:50:00+00:00,259.0,259.0,14.47,16.01,,47.59359,-54.27349
2018-04-06 13:00:00+00:00,266.0,262.0,14.58,17.65,,47.59359,-54.27349
2018-04-06 13:10:00+00:00,277.0,281.0,11.96,14.08,,47.59359,-54.27349
2018-04-06 13:20:00+00:00,255.0,256.0,13.88,15.6,,47.59359,-54.27349
2018-04-06 13:30:00+00:00,274.0,273.0,14.21,17.32,,47.59359,-54.27349
2018-04-06 13:40:00+00:00,267.0,268.0,14.85,16.71,,47.59359,-54.27349
2018-04-06 13:50:00+00:00,268.0,271.0,16.9,18.72,,47.59359,-54.27349
2018-04-06 14:00:00+00:00,266.0,259.0,11.49,13.24,,47.59359,-54.27349
2018-04-06 14:10:00+00:00,265.0,272.0,12.62,14.56,,47.59359,-54.27349
2018-04-06 14:20:00+00:00,263.0,260.0,13.88,16.56,,47.59359,-54.27349
2018-04-06 14:30:00+00:00,269.0,269.0,13.06,14.69,,47.59359,-54.27349
2018-04-06 14:40:00+00:00,260.0,256.0,14.82,17.31,,47.59359,-54.27349
2018-04-06 14:50:00+00:00,270.0,270.0,16.37,20.25,,47.59359,-54.27349
2018-04-06 15:00:00+00:00,267.0,260.0,15.5,18.71,,47.59359,-54.27349
2018-04-06 15:10:00+00:00,267.0,270.0,12.84,14.94,,47.59359,-54.27349
2018-04-06 15:20:00+00:00,261.0,264.0,16.84,20.6,,47.59359,-54.27349
2018-04-06 15:30:00+00:00,264.0,261.0,13.98,17.69,,47.59359,-54.27349
2018-04-06 15:40:00+00:00,263.0,257.0,13.6,16.52,,47.59359,-54.27349
2018-04-06 15:50:00+00:00,257.0,254.0,15.97,18.94,,47.59359,-54.27349
2018-04-06 16:00:00+00:00,264.0,261.0,19.48,22.28,,47.59359,-54.27349
2018-04-06 16:10:00+00:00,255.0,260.0,12.96,15.19,,47.59359,-54.27349
2018-04-06 16:20:00+00:00,267.0,261.0,14.89,19.35,,47.59359,-54.27349
2018-04-06 16:30:00+00:00,266.0,267.0,15.23,19.14,,47.59359,-54.27349
2018-04-06 16:40:00+00:00,260.0,260.0,18.68,20.84,,47.59359,-54.27349
2018-04-06 16:50:00+00:00,275.0,276.0,17.97,21.6,,47.59359,-54.27349
2018-04-06 17:00:00+00:00,267.0,257.0,14.95,19.73,,47.59359,-54.27349
2018-04-06 17:10:00+00:00,272.0,270.0,21.25,25.32,,47.59359,-54.27349
2018-04-06 17:20:00+00:00,280.0,282.0,14.99,17.09,,47.59359,-54.27349
2018-04-06 17:30:00+00:00,283.0,274.0,14.07,16.07,,47.59359,-54.27349
2018-04-06 17:40:00+00:00,278.0,276.0,17.26,20.3,,47.59359,-54.27349
2018-04-06 17:50:00+00:00,268.0,279.0,14.95,17.02,,47.59359,-54.27349
2018-04-06 18:00:00+00:00,265.0,267.0,17.0,19.2,,47.59359,-54.27349
2018-04-06 18:10:00+00:00,267.0,262.0,15.08,17.77,,47.59359,-54.27349
2018-04-06 18:20:00+00:00,272.0,274.0,16.22,18.8,,47.59359,-54.27349
2018-04-06 18:30:00+00:00,273.0,275.0,18.34,24.0,,47.59359,-54.27349
2018-04-06 18:40:00+00:00,270.0,274.0,15.16,18.64,,47.59359,-54.27349
2018-04-06 18:50:00+00:00,271.0,272.0,18.19,20.42,,47.59359,-54.27349
2018-04-06 19:00:00+00:00,280.0,274.0,16.53,19.93,,47.59359,-54.27349
2018-04-06 19:10:00+00:00,264.0,264.0,16.99,20.83,,47.59359,-54.27349
2018-04-06 19:20:00+00:00,275.0,280.0,13.62,15.83,,47.59359,-54.27349
2018-04-06 19:30:00+00:00,272.0,283.0,15.83,18.9,,47.59359,-54.27349
2018-04-06 19:40:00+00:00,267.0,269.0,14.02,19.03,,47.59359,-54.27349
2018-04-06 19:50:00+00:00,277.0,277.0,17.11,22.15,,47.59359,-54.27349
2018-04-06 20:00:00+00:00,274.0,269.0,14.58,17.23,,47.59359,-54.27349
2018-04-06 20:10:00+00:00,270.0,270.0,16.66,19.54,,47.59359,-54.27349
2018-04-06 20:20:00+00:00,269.0,272.0,16.11,19.37,,47.59359,-54.27349
2018-04-06 20:30:00+00:00,270.0,272.0,13.73,16.62,,47.59359,-54.27349
2018-04-06 20:40:00+00:00,268.0,263.0,18.53,21.7,,47.59359,-54.27349
2018-04-06 20:50:00+00:00,298.0,304.0,19.26,23.16,,47.59359,-54.27349
2018-04-06 21:00:00+00:00,276.0,287.0,17.89,20.59,,47.59359,-54.27349
2018-04-06 21:10:00+00:00,279.0,288.0,17.37,19.09,,47.59359,-54.27349
2018-04-06 21:20:00+00:00,266.0,268.0,15.29,18.73,,47.59359,-54.27349
2018-04-06 21:30:00+00:00,279.0,274.0,17.73,23.4,,47.59359,-54.27349
2018-04-06 21:40:00+00:00,273.0,276.0,13.17,15.1,,47.59359,-54.27349
2018-04-06 21:50:00+00:00,275.0,272.0,13.36,16.17,,47.59359,-54.27349
2018-04-06 22:00:00+00:00,274.0,281.0,14.95,17.7,,47.59359,-54.27349
2018-04-06 22:10:00+00:00,273.0,271.0,13.54,15.68,,47.59359,-54.27349
2018-04-06 22:20:00+00:00,269.0,271.0,13.03,14.44,,47.59359,-54.27349
2018-04-06 22:30:00+00:00,275.0,279.0,14.19,16.02,,47.59359,-54.27349
2018-04-06 22:40:00+00:00,274.0,273.0,14.81,17.54,,47.59359,-54.27349
2018-04-06 22:50:00+00:00,276.0,280.0,14.55,16.24,,47.59359,-54.27349
2018-04-06 23:00:00+00:00,269.0,269.0,12.39,16.19,,47.59359,-54.27349
2018-04-06 23:10:00+00:00,278.0,286.0,12.55,14.62,,47.59359,-54.27349
2018-04-06 23:20:00+00:00,279.0,282.0,13.77,16.05,,47.59359,-54.27349
2018-04-06 23:30:00+00:00,264.0,272.0,14.57,15.92,,47.59359,-54.27349
2018-04-06 23:40:00+00:00,268.0,261.0,16.41,19.1,,47.59359,-54.27349
2018-04-06 23:50:00+00:00,276.0,288.0,14.69,17.12,,47.59359,-54.27349
